Kosmos-619

operational
NORAD ID: 6987 Int'l Des: 1973-104 Owner: GUKOSR Country: SU
LEOCIRCULAR

关于 Kosmos-619

正在加载描述...

实时位置

正在加载3D地球...

即将过境

高度历史

Altitude vs Time

uPlot chart will show altitude changes over time

两行轨道根数

1 6987U 73104C 26061.15530470 -.00000019 00000-0 -18923-4 0 9994
2 6987 74.0330 5.8208 0040479 152.3233 207.9985 12.52231649386197
Epoch: Mar 2, 2026 • Age: 30 hours

当前状态

高度 1504.0 km
速度 7.10 km/s
星下点 -57.47°S, 83.19°E
类型 other

大型星座

Loading constellations...